GEO-KOMPSAT-2A

Last updated on Sun Apr 12 2026 00:02:27 GMT+0000 (Coordinated Universal Time)

1 43823U 18100A 26101.49141918 .00000000 00000+0 00000+0 0 9995 2 43823 0.0252 92.9140 0002000 334.2181 77.7647 1.00267553 26960
UTC large
Height (km)
Speed (km/s)
/
Latitude / Longitude
Inclination (degrees)
Orbital Period (minutes)
Azimuth
Elevation
Range (km)
Doppler Factor

Next 0 passes for location: London (51.5072 / 0.1276)

Sorry there are no passes over London.
GEO-KOMPSAT-2A